User: anonymous   Login
Location: ????????
(54.9045°N, 39.1041°E)
Time: 16:12:57
(UTC+00:00)
Language:

Cosmos 1624 Rocket - Orbit

View from above orbital plane
View from above orbital plane
View from above satellite
View from above satellite

Ground track
Ground track

The orbit data is extracted from the following two-line orbital elements,

1 15483U 85006B   24170.88951144  .00000373  00000-0  13427-3 0  9997
2 15483  74.0464 337.6099 0018006  46.1524  61.3907 14.37073054 63674
Epoch (UTC): 18 June 2024 21:20:53
Eccentricity: 0.0018006
inclination: 74.0464°
perigee height: 755 km
apogee height: 781 km
right ascension of ascending node: 337.6099°
argument of perigee: 46.1524°
revolutions per day: 14.37073054
mean anomaly at epoch: 61.3907°
orbit number at epoch: 6367

The dashed part of the orbit path shows where the satellite is in the earth's shadow,  

DLR